Regional Weather Roundup
Issued by NWS

Home | Current Version | Previous Version | Text Only | Print | Product List | Glossary Off
Versions: 1 2 3 4 5 6 7 8 9 10 11 12 13 14 15 16 17 18 19 20 21 22 23 24 25 26 27 28 29 30 31 32 33 34 35 36 37 38 39 40 41 42 43 44 45 46 47 48 49 50

000
ASUS45 KBOI 040210
RWRID
WEATHER ROUNDUP FOR IDAHO
NATIONAL WEATHER SERVICE BOISE ID
700 PM MST TUE MAR 03 2015

NOTE: "FAIR" INDICATES FEW OR NO CLOUDS BELOW 12000 FEET
WITH NO SIGNIFICANT WEATHER AND/OR OBSTRUCTIONS TO VISIBILITY

IDZ012-014-040300-
SOUTHWEST IDAHO


CITY           SKY/WX    TMP DP  RH WIND       PRES   REMARKS
BOISE          CLEAR     39  12  33 NW10      30.03R WCI  32
CALDWELL       CLEAR     36  12  38 NW8       30.07R WCI  29
MOUNTAIN HOME  CLEAR     37  12  35 NW17      30.01R WCI  27
$$

IDZ016-017-040300-
SOUTHCENTRAL IDAHO


CITY           SKY/WX    TMP DP  RH WIND       PRES   REMARKS
BURLEY         LGT RAIN  33  14  45 W13G23    29.93R WCI  24
JEROME         CLEAR     33  13  43 SW18G24   29.96R WCI  22
TWIN FALLS     CLEAR     33  12  41 W15       29.96S WCI  23
$$

IDZ019>023-040300-
SOUTHEAST IDAHO


CITY           SKY/WX    TMP DP  RH WIND       PRES   REMARKS
IDAHO FALLS    CLEAR     25   7  46 S3        29.94R
POCATELLO      PTCLDY    22  12  65 SE6       29.95S WCI  14
REXBURG        CLEAR     22   6  50 CALM      29.92R
$$

IDZ006-010-011-018-031-032-040300-
CENTRAL IDAHO MOUNTAINS


CITY           SKY/WX    TMP DP  RH WIND       PRES   REMARKS
MCCALL         CLEAR     25   4  40 N7        29.99R WCI  17
HAILEY         PTCLDY    30  19  64 S5        29.88R WCI  25
STANLEY          N/A     24   3  40 NW6       29.88R WCI  17
SALMON         CLEAR     28   3  34 N6        29.96R WCI  22
CHALLIS        CLEAR     29   5  36 N5        29.87R WCI  24
$$

IDZ002-004-006-007-026-040300-
NORTHERN IDAHO


CITY           SKY/WX    TMP DP  RH WIND       PRES   REMARKS
LEWISTON       CLEAR     36  15  42 NW6       30.17R WCI  31
LOWELL           N/A     31  22  69 CALM      30.18R
COEUR D`ALENE  CLEAR     30  16  55 SW5       30.11R WCI  25
MULLAN PASS    CLOUDY    13   6  74 NW7       29.94R WCI   3
$$



USA.gov is the U.S. government's official web portal to all federal, state and local government web resources and services.